Showing default

NETSAT-4, 46504

Orbit data source: Space-Track

NETSAT-4, 46504 is a payload satellite owned by ZfT (DE) in SSO that was launched on Mon, 28 Sep 2020 UTC via a SOYUZ-2-1B launch vehicle from the Plesetsk Missile And Space Complex (PKMTR). Payload-class satellites include a variety of spacecraft equipped with specific instruments for various scientific and technological missions. These include communications satellites like Starlink; space stations such as the ISS; scientific satellites like the Hubble; Earth observation satellites from companies like Planet Labs, Umbra, and HawkEye 360; GPS; miniature CubeSats for education and research; and military/defense satellites.

Loading next visibility...
Identifier
46504, 2020-068U
Orbit
SSO
Country
Flag of DEDE / GER
Related business
Manufacturer
ZfT
Mission
Operational Commercial Technology
Bus & Motor
CUBESAT 3U, Unknown motor
Mass
4 kg wet, 4 kg dry
Launch date (UTC)
2020-09-28 (6 years ago)
Launch vehicle
SOYUZ-2-1B
Launch site
Plesetsk Missile And Space Complex (PKMTR)
Object type
Payload
Rocket body
Debris
Shape & HBR
Box, Unknown HBR
Radar Cross Section
0.035 m², Small (<0.1 m²)

Expand to show TLE details & history
Last TLE update: 8 hours ago

TLE from 8 hours ago
0 NETSAT-4
1 46504U 20068U   26124.54813886  .00018062  00000-0  41902-3 0  9999
2 46504  97.8620 129.3338 0007625 111.9534 248.2523 15.42432472309042
Epoch: 2026-05-04T13:09Z
TLE epoch observation values (Epoch: 2026-05-04T13:09:19.197Z)
Latitude
-0.00003°
Longitude
69.56806°
Altitude
443.97 km
Speed
7.645 km/s
True Right ascension
08h 37m 20s
True Declination
0° 00' 00"
Sunlit
Object was in daylight at epoch
Visualization orbit readout
Latitude
Unknown
Longitude
Unknown
Altitude
Unknown
Speed
Unknown
Apparent Right ascension
Unknown
Apparent Declination
Unknown
Sunlit
N/A
Visualization observer readout
Local Sidereal Time
05:03:47
Azimuth
Unknown
Elevation
Unknown
Doppler factor
Unknown
Orbital elements
Apogee altitude
441.085 km
Perigee altitude
430.693 km
Semi-major axis
6,814.026 km
Eccentricity
0.00076
Inclination
97.862°
RAAN
129.3338°
Arg. of periapsis
111.9534°
True anomaly
248.17117°
Mean anomaly
248.2523°
Eccentric anomaly
248.21173°
Mean motion
3.85867 °/min
Orbital period
93.3 mins
BSTAR
0.00041902
Loading maneuver chart data...
Computing Atmospheric mass density...
Loading historical data...
Loading historical data...
Loading historical data...
Loading historical data...
Loading historical data...
Loading historical data...
Loading historical data...

Documentation

Showing up to 5 results
|